Location: Degognia
(37.8612°N, 89.6304°W)
Time: 05:23:49
(UTC+00:00)

Daily predictions for brighter satellites

Satellite Brightness Start Highest point End
(mag) Time Altitude Azimuth Time Altitude Azimuth Time Altitude Azimuth
PSLV R/B 3.9 00:00:47 10° SE 00:04:29 35° ENE 00:08:10 10° N
RESURS DK-1 3.1 00:02:34 10° N 00:05:59 28° ENE 00:05:59 28° ENE
Okean 2 Rocket 3.7 00:03:05 10° SSE 00:06:58 31° E 00:08:01 28° ENE
Nadezhda 4 Rocket 4.4 00:04:39 10° N 00:10:29 39° ENE 00:16:13 10° SE
Geosat FO 4.2 00:09:54 10° SSE 00:12:47 70° WSW 00:15:40 10° NNW
ISS -2.5 00:09:48 10° WSW 00:12:54 35° NNW 00:14:17 24° NNE
ATLAS 2A CENTAUR R/B 4.5 00:00:50 10° SW 00:13:20 27° S 00:17:17 13° SE
CZ-2D R/B 3.3 00:10:18 10° SSE 00:14:20 70° ENE 00:18:29 10° N
SJ 16-02 1.7 00:10:25 10° S 00:14:24 38° ESE 00:15:05 36° ENE
Spot 4 Rocket 3.9 00:11:33 10° SSE 00:16:34 63° ENE 00:21:36 10° N
Timation 2 Rocket 4.4 00:10:15 10° SSW 00:17:05 73° WNW 00:23:58 10° NNE
Cosmos 1536 Rocket 4.2 00:16:01 10° N 00:19:15 34° NE 00:19:15 34° NE
Helios 1A Rocket 2.4 00:17:58 19° N 00:20:19 81° WNW 00:23:40 10° SSW
ATLAS 5 CENTAUR R/B 2.0 00:19:27 10° NW 00:24:13 81° WSW 00:30:06 10° SSE
USA 215 3.9 00:18:32 10° SSE 00:24:54 56° SW 00:31:19 10° NW
Cosmos 1833 Rocket 3.9 00:23:02 10° NW 00:28:21 43° WSW 00:33:37 10° S
Cosmos 371 Rocket 3.4 00:27:03 10° S 00:31:37 47° ESE 00:31:39 47° ESE
Aureole 3 Rocket 3.7 00:28:45 10° SSW 00:31:47 38° W 00:34:06 14° NNW
MOS 1 Rocket 4.1 00:27:56 10° S 00:32:01 47° W 00:36:14 10° NNW
Cosmos 2058 2.6 00:29:55 10° N 00:33:53 78° E 00:37:51 10° S
Cosmos 1656 Rocket 4.5 00:30:05 10° SSE 00:33:51 31° SE 00:33:51 31° SE
Cosmos 304 Rocket 3.6 00:35:49 10° S 00:40:27 61° ESE 00:40:27 61° ESE
NOAA 6 3.9 00:36:40 10° SSE 00:41:47 70° ENE 00:46:54 10° N
Cosmos 1763 Rocket 3.7 00:37:19 10° NNW 00:42:30 71° WSW 00:47:34 10° S
Cosmos 540 Rocket 3.4 00:40:08 10° NNW 00:45:16 80° WSW 00:50:21 10° SSE
Cosmos 1464 Rocket 4.2 00:42:30 10° SSW 00:48:49 74° W 00:55:06 10° N
Cosmos 2151 Rocket 4.0 00:44:36 10° SSW 00:49:01 63° W 00:52:22 17° N
OAO 3 Rocket 3.3 00:44:46 10° WSW 00:49:19 58° S 00:49:21 58° S
Cosmos 1400 Rocket 3.0 00:46:07 10° SSW 00:49:28 62° SW 00:49:28 62° SW
Cosmos 2251 Rocket 4.1 00:46:15 10° SSW 00:51:23 55° WNW 00:55:23 17° N
SL-19 R/B 4.4 00:49:55 10° S 00:55:09 66° WSW 01:00:20 10° NNW
Sich 1 Rocket 3.6 00:51:26 10° S 00:55:45 80° SW 00:55:45 80° SW
Cosmos 2034 Rocket 3.9 00:53:54 10° S 01:00:04 89° E 01:06:20 10° N
Geosat 3.9 01:00:33 74° N 01:00:33 74° N 01:05:10 10° NNW
USA 281 3.8 01:07:16 39° NNE 01:07:16 39° NNE 01:11:47 10° N
Meteor 2-1 Rocket 4.2 01:00:31 10° S 01:06:22 85° E 01:07:22 63° NNE
Okean 1 Rocket 3.7 01:03:07 10° SSW 01:06:42 52° SW 01:06:42 52° SW
Cosmos 2278 Rocket 4.4 01:24:06 10° WSW 01:28:20 21° NW 01:32:26 10° N
Cosmos 2082 Rocket 2.7 01:23:37 10° NNW 01:28:04 54° NW 01:28:04 54° NW
Cosmos 2344 4.2 01:39:01 10° NNW 01:45:44 54° NNE 01:45:44 54° NNE
SJ 16-02 4.1 01:49:51 10° WSW 01:51:41 16° W 01:51:41 16° W
SL-16 R/B 4.4 09:37:29 10° SSE 09:41:49 23° E 09:46:07 10° NE
CZ-2C R/B 4.5 09:56:56 10° NNE 09:58:22 19° NNE 09:58:22 19° NNE
Cosmos 1802 Rocket 3.9 10:06:58 42° N 10:09:15 83° E 10:15:27 10° S
SJ 16-02 3.2 10:18:05 18° NNE 10:20:16 28° ENE 10:23:57 10° SE
Cosmos 2237 Rocket 3.6 10:24:59 24° N 10:24:59 24° N 10:27:21 10° N
Cosmos 2278 Rocket 2.8 10:25:23 41° SSW 10:25:23 41° SSW 10:29:12 10° S
Cosmos 2056 Rocket 3.7 10:21:55 24° S 10:25:11 75° ESE 10:30:35 10° NNE
Cosmos 1943 Rocket 3.1 10:28:04 32° SSW 10:28:04 32° SSW 10:31:09 10° S
USA 229 DEB 4.0 10:23:44 10° SSW 10:29:18 55° ESE 10:35:26 10° NE
USA 229 4.0 10:23:59 10° SSW 10:29:31 54° ESE 10:35:38 10° NE
Cosmos 2016 Rocket 3.9 10:25:41 10° N 10:32:03 78° W 10:38:18 10° S
Cosmos 407 Rocket 4.1 10:33:46 39° SSW 10:33:46 39° SSW 10:37:10 10° S
Cosmos 2369 Rocket 4.3 10:30:47 10° N 10:35:15 23° NE 10:39:43 10° ESE
Cosmos 1932 4.4 10:36:40 43° NW 10:38:57 73° WSW 10:45:25 10° SSE
USA 267 3.4 10:33:10 10° NE 10:39:27 52° NW 10:40:53 44° WNW
Cosmos 1782 Rocket 3.4 10:42:02 70° SW 10:42:02 70° SW 10:45:57 10° S
IRS-1D 4.0 10:38:05 10° NNE 10:42:57 58° E 10:47:47 10° S
Cosmos 1371 Rocket 3.9 10:41:01 20° SSW 10:44:40 76° WNW 10:50:01 10° NNE
Iridium 4 Rocket 3.7 10:47:39 38° SSW 10:47:39 38° SSW 10:50:21 10° S
FengYun 1-2 T 4.2 10:44:01 10° NNE 10:49:38 88° WNW 10:55:16 10° SSW
Cosmos 1300 Rocket 4.3 10:51:06 35° SSW 10:51:06 35° SSW 10:53:49 10° S
Cosmos 1869 3.8 10:47:38 20° NNE 10:49:47 49° E 10:53:11 10° SSE
Cosmos 371 Rocket 3.9 10:45:35 13° N 10:49:53 55° ENE 10:54:36 10° SSE
ATLAS 3B R/B 3.0 10:42:43 10° SSW 10:50:05 83° ESE 10:57:56 10° NNE
Cosmos 1812 3.9 10:53:55 13° NNE 10:56:06 30° E 10:58:41 10° SE
Chandra Rocket (1) 3.9 10:54:13 23° SW 10:56:53 36° S 11:09:10 10° ESE
CENTAUR R/B 4.3 10:49:17 10° NNW 10:57:15 43° NE 11:06:03 10° ESE
Cosmos 304 Rocket 4.0 10:53:23 14° NNW 10:57:32 68° ENE 11:02:15 10° SSE
CZ-4 R/B 4.0 10:53:27 10° NNE 10:58:17 74° ESE 11:02:58 10° S
Cosmos 1378 Rocket 4.0 11:00:39 10° S 11:04:50 62° E 11:09:04 10° NNE
Cosmos 2242 Rocket 3.4 11:04:25 10° SSW 11:08:45 70° W 11:13:10 10° N
NOAA 12 4.1 11:05:39 10° NNE 11:11:00 89° ESE 11:16:18 10° SSW
Cosmos 1656 Rocket 3.7 11:05:54 10° NNW 11:11:37 86° ENE 11:17:16 10° SSE
USA 234 3.7 11:06:48 10° ESE 11:13:12 59° NE 11:19:11 12° NW
In-Cosmos 22 Rocket 4.2 11:09:08 10° SSW 11:14:56 74° W 11:20:45 10° N
CZ-3 R/B 3.0 11:03:33 13° WSW 11:16:54 45° S 11:22:26 10° ESE
Cosmos 1624 Rocket 4.5 11:14:55 16° SW 11:18:29 36° WNW 11:23:15 10° N
Cosmos 2251 Rocket 4.0 11:18:51 20° NW 11:21:57 37° W 11:26:50 10° SSW
Cosmos 1891 Rocket 4.5 11:18:05 10° N 11:24:25 90° W 11:30:35 10° S
Cosmos 2061 Rocket 4.2 11:19:22 10° NNW 11:25:11 44° W 11:30:59 10° SSW
SL-16 R/B 2.4 11:20:05 10° SW 11:25:31 46° WNW 11:30:59 10° N
H-2A R/B 3.7 11:31:38 10° SW 11:33:48 20° SSE 11:38:24 10° ESE
Cosmos 1452 Rocket 3.6 11:29:02 10° SSW 11:34:15 83° ESE 11:39:30 10° NNE
Aureole 3 Rocket 4.1 11:30:05 10° NNW 11:35:42 69° W 11:43:29 10° S
CZ-2C R/B 4.5 11:37:17 10° NW 11:37:35 11° NW 11:37:35 11° NW
Cosmos 1464 Rocket 4.0 11:40:37 10° N 11:46:47 85° E 11:52:54 10° S
Cosmos 1331 Rocket 4.1 11:42:45 10° SSW 11:47:55 57° WNW 11:53:04 10° N
Okean 2 Rocket 3.0 11:51:12 10° N 11:55:35 89° W 11:59:58 10° S
SKYMED 2 4.3 11:52:05 10° SSW 11:56:00 33° W 11:59:57 10° NNW
